Time,TemperatureF,DewpointF,PressureIn,WindDirection,WindDirectionDegrees,WindSpeedMPH,WindSpeedGustMPH,Humidity,HourlyPrecipIn,Conditions,Clouds,dailyrainin,SoftwareType,DateUTC
2013-02-24 00:01:00,26.0,19.0,29.93,SSW,203,4.0,8.0,74,0.00,,,0.03,,2013-02-24 05:01:00,
2013-02-24 00:11:00,26.0,19.0,29.93,SSW,203,4.0,8.0,74,0.00,,,0.03,,2013-02-24 05:11:00,
2013-02-24 00:22:00,26.0,19.0,29.93,SSW,203,4.0,8.0,74,0.00,,,0.03,,2013-02-24 05:22:00,
2013-02-24 00:32:00,26.0,18.0,29.93,WSW,254,2.0,5.0,72,0.00,,,0.02,,2013-02-24 05:32:00,
2013-02-24 00:42:00,26.0,18.0,29.93,WSW,254,2.0,5.0,72,0.00,,,0.02,,2013-02-24 05:42:00,
2013-02-24 00:52:00,26.0,18.0,29.93,West,260,3.0,7.0,72,0.00,,,0.02,,2013-02-24 05:52:00,
2013-02-24 01:02:00,26.0,19.0,29.93,West,264,3.0,6.0,73,0.00,,,0.02,,2013-02-24 06:02:00,
2013-02-24 01:11:00,26.0,19.0,29.93,West,264,3.0,6.0,73,0.00,,,0.02,,2013-02-24 06:11:00,
2013-02-24 01:21:00,26.0,19.0,29.94,West,260,2.0,7.0,74,0.00,,,0.02,,2013-02-24 06:21:00,
2013-02-24 01:32:00,25.0,18.0,29.94,SW,219,2.0,5.0,75,0.00,,,0.01,,2013-02-24 06:32:00,
2013-02-24 01:42:00,25.0,18.0,29.94,SW,219,2.0,5.0,75,0.00,,,0.01,,2013-02-24 06:42:00,
2013-02-24 01:52:00,25.0,19.0,29.95,WNW,288,2.0,5.0,76,0.00,,,0.01,,2013-02-24 06:52:00,
2013-02-24 02:01:00,24.0,18.0,29.95,WSW,243,1.0,6.0,77,0.00,,,0.01,,2013-02-24 07:01:00,
2013-02-24 02:12:00,24.0,18.0,29.95,WSW,243,1.0,6.0,77,0.00,,,0.01,,2013-02-24 07:12:00,
2013-02-24 02:22:00,24.0,18.0,29.95,WSW,256,2.0,6.0,78,0.00,,,0.01,,2013-02-24 07:22:00,
2013-02-24 02:32:00,24.0,18.0,29.96,WSW,252,2.0,5.0,78,0.00,,,0.00,,2013-02-24 07:32:00,
2013-02-24 02:42:00,24.0,18.0,29.96,WSW,252,2.0,5.0,78,0.00,,,0.00,,2013-02-24 07:42:00,
2013-02-24 02:51:00,23.0,17.0,29.96,WSW,250,2.0,5.0,78,0.00,,,0.00,,2013-02-24 07:51:00,
2013-02-24 03:01:00,23.0,17.0,29.96,SSW,211,0.0,3.0,79,0.00,,,0.00,,2013-02-24 08:01:00,
2013-02-24 03:11:00,23.0,17.0,29.96,SSW,211,0.0,3.0,79,0.00,,,0.00,,2013-02-24 08:11:00,
2013-02-24 03:22:00,23.0,17.0,29.96,WSW,250,1.0,4.0,79,0.00,,,0.00,,2013-02-24 08:22:00,
2013-02-24 03:32:00,23.0,18.0,29.96,SSW,207,1.0,4.0,80,0.00,,,0.00,,2013-02-24 08:32:00,
2013-02-24 03:42:00,23.0,18.0,29.96,SSW,207,1.0,4.0,80,0.00,,,0.00,,2013-02-24 08:42:00,
2013-02-24 03:53:00,24.0,19.0,29.96,WNW,283,2.0,5.0,80,0.00,,,0.00,,2013-02-24 08:53:00,
2013-02-24 04:02:00,24.0,19.0,29.96,SSW,205,3.0,7.0,80,0.00,,,0.00,,2013-02-24 09:02:00,
2013-02-24 04:11:00,24.0,19.0,29.96,SSW,205,3.0,7.0,80,0.00,,,0.00,,2013-02-24 09:11:00,
2013-02-24 04:21:00,24.0,19.0,29.96,West,269,2.0,7.0,80,0.00,,,0.00,,2013-02-24 09:21:00,
2013-02-24 04:32:00,24.0,18.0,29.96,WSW,248,1.0,6.0,79,0.00,,,0.00,,2013-02-24 09:32:00,
2013-02-24 04:42:00,24.0,18.0,29.96,WSW,248,1.0,6.0,79,0.00,,,0.00,,2013-02-24 09:42:00,
2013-02-24 04:51:00,24.0,18.0,29.96,WSW,246,2.0,5.0,79,0.00,,,0.00,,2013-02-24 09:51:00,
2013-02-24 05:01:00,24.0,19.0,29.96,West,264,1.0,3.0,80,0.00,,,0.00,,2013-02-24 10:01:00,
2013-02-24 05:11:00,24.0,19.0,29.96,West,264,1.0,3.0,80,0.00,,,0.00,,2013-02-24 10:11:00,
2013-02-24 05:22:00,23.0,18.0,29.97,SW,218,0.0,3.0,80,0.00,,,0.00,,2013-02-24 10:22:00,
2013-02-24 05:32:00,23.0,18.0,29.97,SW,217,0.0,2.0,81,0.00,,,0.00,,2013-02-24 10:32:00,
2013-02-24 05:42:00,23.0,18.0,29.97,SW,217,0.0,2.0,81,0.00,,,0.00,,2013-02-24 10:42:00,
2013-02-24 05:52:00,22.0,17.0,29.98,SSW,205,0.0,1.0,82,0.00,,,0.00,,2013-02-24 10:52:00,
2013-02-24 06:01:00,22.0,17.0,29.98,SSW,205,0.0,1.0,82,0.00,,,0.00,,2013-02-24 11:01:00,
2013-02-24 06:11:00,22.0,17.0,29.98,SSW,205,0.0,1.0,82,0.00,,,0.00,,2013-02-24 11:11:00,
2013-02-24 06:22:00,23.0,18.0,29.99,SSW,207,0.0,2.0,82,0.00,,,0.00,,2013-02-24 11:22:00,
2013-02-24 06:32:00,23.0,18.0,29.99,SW,216,1.0,2.0,82,0.00,,,0.00,,2013-02-24 11:32:00,
2013-02-24 06:42:00,23.0,18.0,29.99,SW,216,1.0,2.0,82,0.00,,,0.00,,2013-02-24 11:42:00,
2013-02-24 06:52:00,23.0,19.0,29.99,SW,235,1.0,4.0,83,0.00,,,0.00,,2013-02-24 11:52:00,
2013-02-24 07:02:00,24.0,19.0,29.99,West,274,2.0,6.0,81,0.00,,,0.00,,2013-02-24 12:02:00,
2013-02-24 07:11:00,24.0,19.0,29.99,West,274,2.0,6.0,81,0.00,,,0.00,,2013-02-24 12:11:00,
2013-02-24 07:22:00,24.0,19.0,29.99,West,274,2.0,6.0,81,0.00,,,0.00,,2013-02-24 12:22:00,
2013-02-24 07:32:00,25.0,19.0,30.00,SE,145,2.0,10.0,79,0.00,,,0.00,,2013-02-24 12:32:00,
2013-02-24 07:46:00,25.0,19.0,30.00,SE,145,2.0,10.0,79,0.00,,,0.00,,2013-02-24 12:46:00,
2013-02-24 07:59:00,24.0,19.0,30.01,SW,222,3.0,8.0,80,0.00,,,0.00,,2013-02-24 12:59:00,
2013-02-24 08:17:00,24.0,19.0,30.01,WSW,258,3.0,7.0,81,0.00,,,0.00,,2013-02-24 13:17:00,
2013-02-24 08:27:00,24.0,19.0,30.01,WSW,258,3.0,7.0,81,0.00,,,0.00,,2013-02-24 13:27:00,
2013-02-24 08:34:00,24.0,19.0,30.02,SSW,207,1.0,8.0,81,0.00,,,0.00,,2013-02-24 13:34:00,
2013-02-24 08:45:00,24.0,19.0,30.02,SSW,207,1.0,8.0,81,0.00,,,0.00,,2013-02-24 13:45:00,
2013-02-24 08:55:00,25.0,20.0,30.03,SSW,205,2.0,6.0,81,0.00,,,0.00,,2013-02-24 13:55:00,
2013-02-24 09:05:00,25.0,20.0,30.03,WSW,257,4.0,11.0,80,0.00,,,0.00,,2013-02-24 14:05:00,
2013-02-24 09:14:00,25.0,20.0,30.03,WSW,257,4.0,11.0,80,0.00,,,0.00,,2013-02-24 14:14:00,
2013-02-24 09:25:00,26.0,20.0,30.03,West,276,3.0,8.0,79,0.00,,,0.00,,2013-02-24 14:25:00,
2013-02-24 09:34:00,27.0,21.0,30.03,West,263,2.0,8.0,77,0.00,,,0.00,,2013-02-24 14:34:00,
2013-02-24 09:44:00,27.0,21.0,30.03,West,263,2.0,8.0,77,0.00,,,0.00,,2013-02-24 14:44:00,
2013-02-24 09:55:00,28.0,21.0,30.04,WSW,243,4.0,9.0,75,0.00,,,0.00,,2013-02-24 14:55:00,
2013-02-24 10:03:00,29.0,22.0,30.04,WSW,238,5.0,10.0,74,0.00,,,0.00,,2013-02-24 15:03:00,
2013-02-24 10:24:00,29.0,22.0,30.05,West,274,7.0,14.0,74,0.00,,,0.00,,2013-02-24 15:24:00,
2013-02-24 10:32:00,30.0,23.0,30.05,WSW,246,5.0,14.0,74,0.00,,,0.00,,2013-02-24 15:32:00,
2013-02-24 10:42:00,30.0,23.0,30.05,WSW,246,5.0,14.0,74,0.00,,,0.00,,2013-02-24 15:42:00,
2013-02-24 10:53:00,30.0,23.0,30.05,WNW,300,5.0,11.0,74,0.00,,,0.00,,2013-02-24 15:53:00,
2013-02-24 11:01:00,29.0,22.0,30.06,West,262,6.0,13.0,74,0.00,,,0.00,,2013-02-24 16:01:00,
2013-02-24 11:12:00,29.0,22.0,30.06,West,262,6.0,13.0,74,0.00,,,0.00,,2013-02-24 16:12:00,
2013-02-24 11:22:00,30.0,23.0,30.06,WSW,245,4.0,12.0,75,0.00,,,0.00,,2013-02-24 16:22:00,
2013-02-24 11:32:00,30.0,23.0,30.06,WNW,287,4.0,10.0,76,0.00,,,0.00,,2013-02-24 16:32:00,
2013-02-24 11:42:00,30.0,23.0,30.06,WNW,287,4.0,10.0,76,0.00,,,0.00,,2013-02-24 16:42:00,
2013-02-24 11:52:00,31.0,24.0,30.06,NW,310,6.0,11.0,75,0.00,,,0.00,,2013-02-24 16:52:00,
2013-02-24 12:01:00,31.0,24.0,30.06,West,262,4.0,13.0,75,0.00,,,0.00,,2013-02-24 17:01:00,
2013-02-24 12:11:00,31.0,24.0,30.06,West,262,4.0,13.0,75,0.00,,,0.00,,2013-02-24 17:11:00,
2013-02-24 12:22:00,31.0,24.0,30.06,SW,233,4.0,11.0,74,0.00,,,0.00,,2013-02-24 17:22:00,
2013-02-24 12:32:00,32.0,25.0,30.07,WSW,239,6.0,13.0,74,0.00,,,0.00,,2013-02-24 17:32:00,
2013-02-24 12:42:00,32.0,25.0,30.07,WSW,239,6.0,13.0,74,0.00,,,0.00,,2013-02-24 17:42:00,
2013-02-24 12:53:00,32.0,24.0,30.07,WSW,243,6.0,13.0,73,0.00,,,0.00,,2013-02-24 17:53:00,
2013-02-24 13:02:00,32.0,25.0,30.07,SW,228,5.0,14.0,74,0.00,,,0.00,,2013-02-24 18:02:00,
2013-02-24 13:11:00,32.0,25.0,30.07,SW,228,5.0,14.0,74,0.00,,,0.00,,2013-02-24 18:11:00,
2013-02-24 13:22:00,33.0,25.0,30.07,WNW,290,5.0,11.0,71,0.00,,,0.00,,2013-02-24 18:22:00,
2013-02-24 13:32:00,33.0,25.0,30.07,WSW,249,6.0,12.0,72,0.00,,,0.00,,2013-02-24 18:32:00,
2013-02-24 13:42:00,33.0,25.0,30.07,WSW,249,6.0,12.0,72,0.00,,,0.00,,2013-02-24 18:42:00,
2013-02-24 13:52:00,34.0,25.0,30.07,West,269,7.0,13.0,70,0.00,,,0.00,,2013-02-24 18:52:00,
2013-02-24 14:01:00,33.0,25.0,30.07,WNW,291,6.0,10.0,72,0.00,,,0.00,,2013-02-24 19:01:00,
2013-02-24 14:12:00,33.0,25.0,30.07,WNW,291,6.0,10.0,72,0.00,,,0.00,,2013-02-24 19:12:00,
2013-02-24 14:22:00,33.0,25.0,30.07,NW,314,5.0,11.0,72,0.00,,,0.00,,2013-02-24 19:22:00,
2013-02-24 14:32:00,34.0,26.0,30.07,WNW,294,6.0,12.0,72,0.00,,,0.00,,2013-02-24 19:32:00,
2013-02-24 14:42:00,34.0,26.0,30.07,WNW,294,6.0,12.0,72,0.00,,,0.00,,2013-02-24 19:42:00,
2013-02-24 14:52:00,34.0,25.0,30.08,West,281,6.0,11.0,70,0.00,,,0.00,,2013-02-24 19:52:00,
2013-02-24 15:02:00,34.0,26.0,30.08,WNW,287,5.0,12.0,71,0.00,,,0.00,,2013-02-24 20:02:00,
2013-02-24 15:11:00,34.0,26.0,30.08,WNW,287,5.0,12.0,71,0.00,,,0.00,,2013-02-24 20:11:00,
2013-02-24 15:22:00,35.0,27.0,30.08,West,267,3.0,12.0,71,0.00,,,0.00,,2013-02-24 20:22:00,
2013-02-24 15:32:00,35.0,25.0,30.08,West,269,5.0,12.0,67,0.00,,,0.00,,2013-02-24 20:32:00,
2013-02-24 15:42:00,35.0,25.0,30.08,West,269,5.0,12.0,67,0.00,,,0.00,,2013-02-24 20:42:00,
2013-02-24 15:52:00,35.0,26.0,30.08,WNW,298,4.0,11.0,69,0.00,,,0.00,,2013-02-24 20:52:00,
2013-02-24 16:02:00,35.0,25.0,30.09,West,264,6.0,10.0,67,0.00,,,0.00,,2013-02-24 21:02:00,
2013-02-24 16:11:00,35.0,25.0,30.09,West,264,6.0,10.0,67,0.00,,,0.00,,2013-02-24 21:11:00,
2013-02-24 16:21:00,34.0,25.0,30.09,West,263,4.0,8.0,68,0.00,,,0.00,,2013-02-24 21:21:00,
2013-02-24 16:32:00,34.0,25.0,30.10,NW,308,3.0,9.0,70,0.00,,,0.00,,2013-02-24 21:32:00,
2013-02-24 16:42:00,34.0,25.0,30.10,NW,308,3.0,9.0,70,0.00,,,0.00,,2013-02-24 21:42:00,
2013-02-24 16:52:00,34.0,25.0,30.10,WSW,257,4.0,9.0,70,0.00,,,0.00,,2013-02-24 21:52:00,
2013-02-24 17:01:00,34.0,25.0,30.10,WNW,299,2.0,9.0,70,0.00,,,0.00,,2013-02-24 22:01:00,
2013-02-24 17:11:00,34.0,25.0,30.10,WNW,299,2.0,9.0,70,0.00,,,0.00,,2013-02-24 22:11:00,
2013-02-24 17:22:00,34.0,26.0,30.11,WNW,288,4.0,8.0,73,0.00,,,0.00,,2013-02-24 22:22:00,
2013-02-24 17:32:00,33.0,25.0,30.11,WSW,250,3.0,9.0,73,0.00,,,0.00,,2013-02-24 22:32:00,
2013-02-24 17:42:00,33.0,25.0,30.11,WSW,250,3.0,9.0,73,0.00,,,0.00,,2013-02-24 22:42:00,
2013-02-24 17:52:00,33.0,25.0,30.11,WSW,254,4.0,8.0,73,0.00,,,0.00,,2013-02-24 22:52:00,
2013-02-24 18:02:00,33.0,26.0,30.11,West,273,3.0,8.0,75,0.00,,,0.00,,2013-02-24 23:02:00,
2013-02-24 18:11:00,33.0,26.0,30.11,West,273,3.0,8.0,75,0.00,,,0.00,,2013-02-24 23:11:00,
2013-02-24 18:21:00,33.0,26.0,30.12,WNW,283,2.0,7.0,75,0.00,,,0.00,,2013-02-24 23:21:00,
2013-02-24 18:32:00,33.0,26.0,30.12,WNW,287,3.0,7.0,76,0.00,,,0.00,,2013-02-24 23:32:00,
2013-02-24 18:42:00,33.0,26.0,30.12,WNW,287,3.0,7.0,76,0.00,,,0.00,,2013-02-24 23:42:00,
2013-02-24 18:52:00,33.0,26.0,30.13,WSW,242,2.0,6.0,76,0.00,,,0.00,,2013-02-24 23:52:00,
2013-02-24 19:01:00,32.0,26.0,30.13,West,266,1.0,5.0,77,0.00,,,0.00,,2013-02-25 00:01:00,
2013-02-24 19:11:00,32.0,26.0,30.13,West,266,1.0,5.0,77,0.00,,,0.00,,2013-02-25 00:11:00,
2013-02-24 19:21:00,32.0,26.0,30.14,WSW,240,0.0,2.0,79,0.00,,,0.00,,2013-02-25 00:21:00,
2013-02-24 19:32:00,31.0,25.0,30.14,WSW,248,1.0,2.0,79,0.00,,,0.00,,2013-02-25 00:32:00,
2013-02-24 19:42:00,31.0,25.0,30.14,WSW,248,1.0,2.0,79,0.00,,,0.00,,2013-02-25 00:42:00,
2013-02-24 19:52:00,31.0,26.0,30.14,SW,226,0.0,1.0,80,0.00,,,0.00,,2013-02-25 00:52:00,
2013-02-24 20:01:00,31.0,26.0,30.16,WSW,246,0.0,2.0,81,0.00,,,0.00,,2013-02-25 01:01:00,
2013-02-24 20:11:00,31.0,26.0,30.16,WSW,246,0.0,2.0,81,0.00,,,0.00,,2013-02-25 01:11:00,
2013-02-24 20:21:00,31.0,26.0,30.16,SSW,212,0.0,2.0,81,0.00,,,0.00,,2013-02-25 01:21:00,
2013-02-24 20:32:00,30.0,25.0,30.16,SW,214,0.0,2.0,81,0.00,,,0.00,,2013-02-25 01:32:00,
2013-02-24 20:42:00,30.0,25.0,30.16,SW,214,0.0,2.0,81,0.00,,,0.00,,2013-02-25 01:42:00,
2013-02-24 20:52:00,30.0,25.0,30.16,SSW,213,0.0,1.0,83,0.00,,,0.00,,2013-02-25 01:52:00,
2013-02-24 21:01:00,29.0,25.0,30.16,WSW,238,0.0,0.0,84,0.00,,,0.00,,2013-02-25 02:01:00,
2013-02-24 21:11:00,29.0,25.0,30.16,WSW,238,0.0,0.0,84,0.00,,,0.00,,2013-02-25 02:11:00,
2013-02-24 21:21:00,29.0,25.0,30.16,WSW,238,0.0,0.0,84,0.00,,,0.00,,2013-02-25 02:21:00,
2013-02-24 21:32:00,28.0,24.0,30.16,WSW,238,0.0,0.0,85,0.00,,,0.00,,2013-02-25 02:32:00,
2013-02-24 21:42:00,28.0,24.0,30.16,WSW,238,0.0,0.0,85,0.00,,,0.00,,2013-02-25 02:42:00,
2013-02-24 21:52:00,28.0,24.0,30.16,WSW,238,0.0,0.0,86,0.00,,,0.00,,2013-02-25 02:52:00,
2013-02-24 22:01:00,28.0,24.0,30.16,SW,232,0.0,0.0,86,0.00,,,0.00,,2013-02-25 03:01:00,
2013-02-24 22:11:00,28.0,24.0,30.16,SW,232,0.0,0.0,86,0.00,,,0.00,,2013-02-25 03:11:00,
2013-02-24 22:21:00,28.0,24.0,30.17,WSW,243,0.0,2.0,86,0.00,,,0.00,,2013-02-25 03:21:00,
2013-02-24 22:32:00,28.0,24.0,30.16,WSW,250,0.0,1.0,85,0.00,,,0.00,,2013-02-25 03:32:00,
2013-02-24 22:42:00,28.0,24.0,30.16,WSW,250,0.0,1.0,85,0.00,,,0.00,,2013-02-25 03:42:00,
2013-02-24 22:52:00,28.0,24.0,30.16,WSW,250,0.0,1.0,86,0.00,,,0.00,,2013-02-25 03:52:00,
2013-02-24 23:02:00,28.0,24.0,30.17,WSW,250,0.0,0.0,85,0.00,,,0.00,,2013-02-25 04:02:00,
2013-02-24 23:11:00,28.0,24.0,30.17,WSW,250,0.0,0.0,85,0.00,,,0.00,,2013-02-25 04:11:00,
2013-02-24 23:21:00,27.0,23.0,30.17,WSW,250,0.0,0.0,86,0.00,,,0.00,,2013-02-25 04:21:00,
2013-02-24 23:32:00,26.0,23.0,30.16,WSW,250,0.0,0.0,88,0.00,,,0.00,,2013-02-25 04:32:00,
2013-02-24 23:42:00,26.0,23.0,30.16,WSW,250,0.0,0.0,88,0.00,,,0.00,,2013-02-25 04:42:00,
2013-02-24 23:52:00,26.0,23.0,30.17,WSW,250,0.0,0.0,89,0.00,,,0.00,,2013-02-25 04:52:00,